• en Suisse
  • Liste des pays
  • À 7 jours
  • Température de l'eau
  • Carte satellitaire
  • Carte météo
  • Widgets météo
  • user-avatar
    Se connecter

    Météo par heure à Serhiivka

    Ce jour, 26 Avril, Jeudi

    Heure Température Précipitation Vent Pression Humidité
    00:00 +15°C° 0 mm 4 m/s 751 mmHg 68%
    01:00 +14°C° 0 mm 4 m/s 751 mmHg 69%
    02:00 +14°C° 0 mm 3 m/s 750 mmHg 71%
    03:00 +14°C° 0 mm 3 m/s 750 mmHg 72%
    04:00 +13°C° 0 mm 4 m/s 751 mmHg 73%
    05:00 +13°C° 0 mm 4 m/s 751 mmHg 74%
    06:00 +15°C° 0 mm 4 m/s 751 mmHg 69%
    07:00 +17°C° 0 mm 5 m/s 751 mmHg 64%
    08:00 +20°C° 0 mm 5 m/s 751 mmHg 59%
    09:00 +21°C° 0 mm 6 m/s 751 mmHg 55%
    10:00 +23°C° 0 mm 6 m/s 751 mmHg 51%
    11:00 +26°C° 0 mm 6 m/s 751 mmHg 47%
    12:00 +26°C° 0 mm 6 m/s 751 mmHg 45%
    13:00 +27°C° 0 mm 6 m/s 750 mmHg 43%
    14:00 +28°C° 0 mm 5 m/s 750 mmHg 41%
    15:00 +27°C° 0 mm 5 m/s 750 mmHg 43%
    16:00 +27°C° 0 mm 4 m/s 750 mmHg 46%
    17:00 +26°C° 0 mm 4 m/s 750 mmHg 48%
    18:00 +24°C° 0,1 mm 3 m/s 750 mmHg 54%
    19:00 +22°C° 0,1 mm 3 m/s 750 mmHg 59%
    20:00 +20°C° 0,1 mm 3 m/s 750 mmHg 64%
    21:00 +19°C° 0,2 mm 3 m/s 750 mmHg 66%
    22:00 +18°C° 0,2 mm 2 m/s 750 mmHg 69%
    23:00 +17°C° 0,2 mm 2 m/s 751 mmHg 71%

    Demain, 27 Avril, Vendredi

    Heure Température Précipitation Vent Pression Humidité
    00:00 +16°C° 0 mm 2 m/s 750 mmHg 71%
    01:00 +15°C° 0 mm 2 m/s 750 mmHg 72%
    02:00 +15°C° 0 mm 2 m/s 750 mmHg 73%
    03:00 +14°C° 0 mm 2 m/s 750 mmHg 75%
    04:00 +14°C° 0 mm 2 m/s 750 mmHg 76%
    05:00 +14°C° 0 mm 2 m/s 750 mmHg 78%
    06:00 +14°C° 0 mm 3 m/s 750 mmHg 72%
    07:00 +17°C° 0 mm 3 m/s 750 mmHg 67%
    08:00 +18°C° 0 mm 3 m/s 750 mmHg 62%
    09:00 +20°C° 0,1 mm 3 m/s 751 mmHg 59%
    10:00 +21°C° 0,1 mm 3 m/s 751 mmHg 56%
    11:00 +22°C° 0,1 mm 4 m/s 751 mmHg 52%
    12:00 +21°C° 0,4 mm 5 m/s 751 mmHg 59%
    13:00 +20°C° 0,4 mm 6 m/s 751 mmHg 66%
    14:00 +18°C° 0,4 mm 7 m/s 751 mmHg 72%
    15:00 +17°C° 0,3 mm 6 m/s 751 mmHg 71%
    16:00 +17°C° 0,3 mm 6 m/s 752 mmHg 71%
    17:00 +17°C° 0,3 mm 6 m/s 752 mmHg 70%
    18:00 +15°C° 0 mm 5 m/s 752 mmHg 73%
    19:00 +14°C° 0 mm 4 m/s 753 mmHg 77%
    20:00 +13°C° 0 mm 3 m/s 754 mmHg 80%
    21:00 +12°C° 0 mm 3 m/s 754 mmHg 81%
    22:00 +13°C° 0 mm 2 m/s 754 mmHg 83%
    23:00 +12°C° 0 mm 2 m/s 755 mmHg 84%

    Après-demain, 28 Avril, Samedi

    Heure Température Précipitation Vent Pression Humidité
    00:00 +12°C° 0 mm 2 m/s 755 mmHg 85%
    01:00 +10°C° 0 mm 2 m/s 756 mmHg 86%
    02:00 +10°C° 0 mm 2 m/s 756 mmHg 86%
    03:00 +10°C° 0 mm 2 m/s 756 mmHg 87%
    04:00 +10°C° 0 mm 2 m/s 757 mmHg 87%
    05:00 +9°C° 0 mm 2 m/s 757 mmHg 88%
    06:00 +11°C° 0 mm 3 m/s 757 mmHg 78%
    07:00 +13°C° 0 mm 3 m/s 758 mmHg 69%
    08:00 +16°C° 0 mm 3 m/s 758 mmHg 60%
    09:00 +17°C° 0 mm 3 m/s 758 mmHg 53%
    10:00 +18°C° 0 mm 3 m/s 758 mmHg 46%
    11:00 +19°C° 0 mm 3 m/s 759 mmHg 39%
    12:00 +20°C° 0 mm 2 m/s 758 mmHg 37%
    13:00 +20°C° 0 mm 2 m/s 758 mmHg 35%
    14:00 +21°C° 0 mm 2 m/s 758 mmHg 33%
    15:00 +21°C° 0 mm 2 m/s 758 mmHg 34%
    16:00 +21°C° 0 mm 2 m/s 758 mmHg 34%
    17:00 +21°C° 0 mm 2 m/s 758 mmHg 35%
    18:00 +19°C° 0 mm 2 m/s 758 mmHg 39%
    19:00 +17°C° 0 mm 2 m/s 758 mmHg 43%
    20:00 +16°C° 0 mm 2 m/s 759 mmHg 47%
    21:00 +15°C° 0 mm 2 m/s 759 mmHg 49%
    22:00 +15°C° 0 mm 2 m/s 759 mmHg 51%
    23:00 +14°C° 0 mm 2 m/s 759 mmHg 53%

    29 Avril, Dimanche

    Heure Température Précipitation Vent Pression Humidité
    00:00 +14°C° 0 mm 2 m/s 759 mmHg 54%
    01:00 +13°C° 0 mm 2 m/s 759 mmHg 56%
    02:00 +13°C° 0 mm 2 m/s 759 mmHg 57%
    03:00 +12°C° 0 mm 2 m/s 759 mmHg 59%
    04:00 +12°C° 0 mm 2 m/s 759 mmHg 61%
    05:00 +12°C° 0 mm 2 m/s 759 mmHg 62%
    06:00 +14°C° 0 mm 2 m/s 760 mmHg 58%
    07:00 +16°C° 0 mm 3 m/s 760 mmHg 53%
    08:00 +18°C° 0 mm 3 m/s 760 mmHg 49%
    09:00 +19°C° 0 mm 3 m/s 760 mmHg 45%
    10:00 +20°C° 0 mm 3 m/s 760 mmHg 40%
    11:00 +22°C° 0 mm 3 m/s 760 mmHg 36%
    12:00 +22°C° 0 mm 3 m/s 759 mmHg 35%
    13:00 +24°C° 0 mm 3 m/s 759 mmHg 34%
    14:00 +24°C° 0 mm 3 m/s 759 mmHg 33%
    15:00 +24°C° 0 mm 3 m/s 758 mmHg 35%
    16:00 +24°C° 0 mm 3 m/s 758 mmHg 36%
    17:00 +24°C° 0 mm 3 m/s 758 mmHg 38%
    18:00 +21°C° 0 mm 3 m/s 758 mmHg 43%
    19:00 +19°C° 0 mm 2 m/s 758 mmHg 48%
    20:00 +17°C° 0 mm 2 m/s 758 mmHg 53%
    21:00 +16°C° 0 mm 2 m/s 758 mmHg 55%
    22:00 +16°C° 0 mm 2 m/s 758 mmHg 58%
    23:00 +15°C° 0 mm 2 m/s 758 mmHg 61%

    30 Avril, Lundi

    Heure Température Précipitation Vent Pression Humidité
    00:00 +14°C° 0 mm 2 m/s 758 mmHg 61%
    01:00 +14°C° 0 mm 2 m/s 758 mmHg 62%
    02:00 +13°C° 0 mm 2 m/s 758 mmHg 62%
    03:00 +13°C° 0 mm 2 m/s 758 mmHg 63%
    04:00 +13°C° 0 mm 2 m/s 757 mmHg 64%
    05:00 +12°C° 0 mm 3 m/s 757 mmHg 65%
    06:00 +13°C° 0 mm 3 m/s 757 mmHg 60%
    07:00 +15°C° 0 mm 4 m/s 757 mmHg 55%
    08:00 +17°C° 0 mm 5 m/s 757 mmHg 50%
    09:00 +20°C° 0 mm 5 m/s 757 mmHg 46%
    10:00 +21°C° 0 mm 5 m/s 757 mmHg 43%
    11:00 +22°C° 0 mm 5 m/s 757 mmHg 39%
    12:00 +23°C° 0 mm 5 m/s 756 mmHg 38%
    13:00 +25°C° 0 mm 5 m/s 756 mmHg 36%
    14:00 +25°C° 0 mm 5 m/s 756 mmHg 35%
    15:00 +25°C° 0 mm 5 m/s 755 mmHg 37%
    16:00 +23°C° 0 mm 5 m/s 755 mmHg 38%
    17:00 +23°C° 0 mm 5 m/s 755 mmHg 39%
    18:00 +21°C° 0 mm 4 m/s 755 mmHg 44%
    19:00 +19°C° 0 mm 4 m/s 755 mmHg 49%
    20:00 +17°C° 0 mm 3 m/s 755 mmHg 53%
    21:00 +17°C° 0 mm 3 m/s 755 mmHg 55%
    22:00 +16°C° 0 mm 3 m/s 755 mmHg 58%
    23:00 +14°C° 0 mm 3 m/s 755 mmHg 60%

    1 Mai, Mardi

    Heure Température Précipitation Vent Pression Humidité
    00:00 +14°C° 0 mm 3 m/s 755 mmHg 62%
    01:00 +13°C° 0 mm 3 m/s 755 mmHg 64%
    02:00 +13°C° 0 mm 3 m/s 755 mmHg 66%
    03:00 +13°C° 0 mm 3 m/s 755 mmHg 68%
    04:00 +12°C° 0 mm 3 m/s 755 mmHg 70%
    05:00 +12°C° 0 mm 3 m/s 755 mmHg 72%
    06:00 +14°C° 0 mm 3 m/s 755 mmHg 66%
    07:00 +17°C° 0 mm 4 m/s 755 mmHg 60%
    08:00 +19°C° 0 mm 4 m/s 755 mmHg 54%
    09:00 +20°C° 0 mm 4 m/s 755 mmHg 48%
    10:00 +22°C° 0 mm 4 m/s 755 mmHg 41%
    11:00 +25°C° 0 mm 5 m/s 755 mmHg 34%
    12:00 +25°C° 0 mm 5 m/s 755 mmHg 33%
    13:00 +26°C° 0 mm 5 m/s 754 mmHg 32%
    14:00 +26°C° 0 mm 5 m/s 754 mmHg 31%
    15:00 +26°C° 0 mm 4 m/s 754 mmHg 33%
    16:00 +26°C° 0 mm 4 m/s 754 mmHg 35%
    17:00 +25°C° 0 mm 4 m/s 754 mmHg 38%
    18:00 +22°C° 0 mm 4 m/s 754 mmHg 44%
    19:00 +20°C° 0 mm 3 m/s 754 mmHg 51%
    20:00 +18°C° 0 mm 3 m/s 754 mmHg 57%
    21:00 +17°C° 0 mm 3 m/s 754 mmHg 62%
    22:00 +16°C° 0 mm 2 m/s 754 mmHg 66%
    23:00 +15°C° 0 mm 2 m/s 754 mmHg 71%
    Voir plus